Regional Weather Roundup
Issued by NWS

Home | Current Version | Previous Version | Text Only | Print | Product List | Glossary On
Versions: 1 2 3 4 5 6 7 8 9 10 11 12 13 14 15 16 17 18 19 20 21 22 23 24 25 26 27 28 29 30 31 32 33 34 35 36 37 38 39 40 41 42 43 44 45 46 47 48 49 50
000
ASUS45 KREV 061010
RWRNV
NEVADA REGIONAL WEATHER ROUNDUP
NATIONAL WEATHER SERVICE RENO NV
300 AM PDT MON JUL 06 2015

NOTE: "FAIR" INDICATES FEW OR NO CLOUDS BELOW 12,000 FEET WITH NO
SIGNIFICANT WEATHER AND/OR OBSTRUCTIONS TO VISIBILITY.

NVZ001-003-004-061100-
WESTERN NEVADA

CITY           SKY/WX    TMP DP  RH WIND       PRES   REMARKS
RENO           MOCLDY    69  51  52 W3        30.14R
CARSON CITY    FAIR      66  48  52 CALM      30.17S
MINDEN         FAIR      59  48  67 E8        30.17R
SLIDE MTN        N/A     54  39  58 SE5         N/A
PYRAMID LAKE     N/A     70 N/A N/A S3          N/A
FALLON         MOCLDY    64  54  68 SW5       30.11R HAZE
LOVELOCK       MOCLDY    60  56  86 CALM      30.10R
HAWTHORNE      CLEAR     63  52  67 E9        30.14S
$$

NVZ002-CAZ072-073-061100-
NORTHERN AND CENTRAL SIERRA

CITY           SKY/WX    TMP DP  RH WIND       PRES   REMARKS
S. LAKE TAHOE  CLEAR     54  46  74 CALM      30.25S
TRUCKEE        CLEAR     50  46  87 CALM      30.25S
SQUAW VLY 8000 NOT AVBL
SUSANVILLE     CLEAR     63  43  48 W6        30.13R
BLUE CANYON    CLEAR     66  50  56 S5        30.19S
MAMMOTH LAKES  FAIR      48  39  71 CALM      30.32S
BRIDGEPORT     FAIR      50  40  68 CALM      30.28S
$$

NVZ030-031-036-061100-
NORTHERN NEVADA

CITY           SKY/WX    TMP DP  RH WIND       PRES   REMARKS
ELKO           CLEAR     57  45  64 CALM      30.17S
WINNEMUCCA     PTCLDY    59  47  64 CALM      30.14R
WENDOVER       CLEAR     73  50  43 N5        30.08S
$$

NVZ035-037-061100-
CENTRAL NEVADA

CITY           SKY/WX    TMP DP  RH WIND       PRES   REMARKS
ELY            MOCLDY    64  40  41 NW3       30.24S
EUREKA           N/A     55  39  54 CALM      30.24S
$$

NVZ013-014-061100-
SOUTH CENTRAL NEVADA

CITY           SKY/WX    TMP DP  RH WIND       PRES   REMARKS
TONOPAH        CLEAR     63  38  39 N12       30.20R
$$

NVZ017-020-022-061100-
SOUTHERN NEVADA

CITY           SKY/WX    TMP DP  RH WIND       PRES   REMARKS
LAS VEGAS      CLOUDY    86  52  30 SW9       29.91R
N. LAS VEGAS   CLOUDY    85  54  34 NE5       29.93S
NELLIS AFB     CLOUDY    86  53  32 W1        29.92R
HENDERSON      CLOUDY    81  56  42 E5        29.99R
MERCURY        PTCLDY    73  56  54 NE5       30.02R
$$


USA.gov is the U.S. government's official web portal to all federal, state and local government web resources and services.